When you browse on this site, cookies collect data to enhance your experience and personalize the content and advertising you see.
Visit our Privacy Policy to learn more. By continuing to use the site, you agree to this use of cookies and data.
  • In Romania
  • List of Countries
  • For 7 days
  • Water Temperature
  • Weather Map
  • Weather Widgets
  • user-avatar
    Login

    Hourly Weather Omagh

    Today, 26 February, Wednesday

    Time Temperature Precipitation Wind Pressure Humidity
    00:00 -1°C° 0 mm 4 mps 740 mmHg 88%
    01:00 -1°C° 0.3 mm 4 mps 741 mmHg 88%
    02:00 0°C° 0.3 mm 5 mps 741 mmHg 88%
    03:00 0°C° 0.3 mm 5 mps 742 mmHg 88%
    04:00 0°C° 0 mm 5 mps 743 mmHg 87%
    05:00 0°C° 0 mm 5 mps 743 mmHg 86%
    06:00 0°C° 0 mm 3 mps 744 mmHg 86%
    07:00 0°C° 0 mm 3 mps 745 mmHg 84%
    08:00 0°C° 0 mm 3 mps 746 mmHg 83%
    09:00 +1°C° 0 mm 3 mps 746 mmHg 81%
    10:00 +1°C° 0.1 mm 4 mps 746 mmHg 77%
    11:00 +3°C° 0.1 mm 4 mps 747 mmHg 73%
    12:00 +3°C° 0.1 mm 5 mps 747 mmHg 69%
    13:00 +2°C° 0.2 mm 5 mps 746 mmHg 75%
    14:00 +2°C° 0.2 mm 5 mps 746 mmHg 81%
    15:00 +2°C° 0.2 mm 5 mps 746 mmHg 87%
    16:00 +1°C° 0.1 mm 4 mps 745 mmHg 88%
    17:00 +2°C° 0.1 mm 3 mps 745 mmHg 88%
    18:00 +1°C° 0.1 mm 3 mps 744 mmHg 89%
    19:00 +1°C° 0.1 mm 3 mps 744 mmHg 92%
    20:00 +2°C° 0.1 mm 2 mps 744 mmHg 94%
    21:00 +2°C° 0.1 mm 2 mps 743 mmHg 97%
    22:00 +2°C° 0.1 mm 2 mps 743 mmHg 97%
    23:00 +2°C° 0.1 mm 2 mps 743 mmHg 98%

    Tomorrow, 27 February, Thursday

    Time Temperature Precipitation Wind Pressure Humidity
    00:00 +3°C° 0.1 mm 1 mps 742 mmHg 98%
    01:00 +2°C° 0.5 mm 1 mps 742 mmHg 98%
    02:00 +1°C° 0.5 mm 2 mps 742 mmHg 98%
    03:00 +1°C° 0.5 mm 2 mps 741 mmHg 98%
    04:00 +1°C° 0.2 mm 2 mps 741 mmHg 98%
    05:00 +1°C° 0.2 mm 2 mps 742 mmHg 97%
    06:00 0°C° 0.2 mm 3 mps 742 mmHg 97%
    07:00 0°C° 0 mm 3 mps 742 mmHg 94%
    08:00 0°C° 0 mm 3 mps 742 mmHg 92%
    09:00 0°C° 0 mm 3 mps 743 mmHg 89%
    10:00 0°C° 0.1 mm 4 mps 743 mmHg 84%
    11:00 +1°C° 0.1 mm 5 mps 744 mmHg 78%
    12:00 +2°C° 0.1 mm 6 mps 745 mmHg 73%
    13:00 +3°C° 0.1 mm 6 mps 745 mmHg 72%
    14:00 +3°C° 0.1 mm 6 mps 746 mmHg 71%
    15:00 +3°C° 0.1 mm 5 mps 746 mmHg 70%
    16:00 +3°C° 0 mm 4 mps 747 mmHg 75%
    17:00 +2°C° 0 mm 3 mps 747 mmHg 80%
    18:00 +1°C° 0 mm 2 mps 747 mmHg 85%
    19:00 +1°C° 0 mm 2 mps 748 mmHg 87%
    20:00 +1°C° 0 mm 2 mps 748 mmHg 88%
    21:00 +1°C° 0 mm 2 mps 748 mmHg 90%
    22:00 +1°C° 0 mm 2 mps 748 mmHg 91%
    23:00 +1°C° 0 mm 2 mps 748 mmHg 91%

    Day after tomorrow, 28 February, Friday

    Time Temperature Precipitation Wind Pressure Humidity
    00:00 +1°C° 0 mm 2 mps 747 mmHg 92%
    01:00 +1°C° 0 mm 2 mps 747 mmHg 91%
    02:00 +1°C° 0 mm 2 mps 746 mmHg 91%
    03:00 +1°C° 0 mm 2 mps 746 mmHg 90%
    04:00 0°C° 0 mm 3 mps 745 mmHg 91%
    05:00 0°C° 0 mm 3 mps 744 mmHg 92%
    06:00 0°C° 0 mm 3 mps 743 mmHg 93%
    07:00 +1°C° 0.3 mm 3 mps 742 mmHg 94%
    08:00 0°C° 0.3 mm 4 mps 741 mmHg 96%
    09:00 0°C° 0.3 mm 4 mps 740 mmHg 97%
    10:00 +1°C° 0.4 mm 4 mps 739 mmHg 97%
    11:00 +3°C° 0.4 mm 4 mps 738 mmHg 97%
    12:00 +3°C° 0.4 mm 4 mps 737 mmHg 96%
    13:00 +4°C° 0.1 mm 3 mps 736 mmHg 96%
    14:00 +5°C° 0.1 mm 2 mps 735 mmHg 97%
    15:00 +7°C° 0.1 mm 1 mps 735 mmHg 97%
    16:00 +6°C° 0 mm 1 mps 734 mmHg 97%
    17:00 +6°C° 0 mm 1 mps 733 mmHg 98%
    18:00 +6°C° 0 mm 1 mps 732 mmHg 98%
    19:00 +6°C° 0 mm 1 mps 731 mmHg 98%
    20:00 +6°C° 0 mm 1 mps 730 mmHg 98%
    21:00 +5°C° 0 mm 2 mps 729 mmHg 98%
    22:00 +6°C° 0.7 mm 2 mps 727 mmHg 98%
    23:00 +5°C° 0.7 mm 3 mps 725 mmHg 98%

    29 February, Saturday

    Time Temperature Precipitation Wind Pressure Humidity
    00:00 +5°C° 0.7 mm 3 mps 724 mmHg 98%
    01:00 +7°C° 1 mm 3 mps 722 mmHg 98%
    02:00 +8°C° 1 mm 3 mps 721 mmHg 98%
    03:00 +8°C° 1 mm 3 mps 719 mmHg 98%
    04:00 +7°C° 0.2 mm 4 mps 718 mmHg 96%
    05:00 +6°C° 0.2 mm 4 mps 718 mmHg 95%
    06:00 +5°C° 0.2 mm 4 mps 717 mmHg 94%
    07:00 +5°C° 0 mm 4 mps 716 mmHg 93%
    08:00 +4°C° 0 mm 3 mps 715 mmHg 91%
    09:00 +3°C° 0 mm 3 mps 715 mmHg 90%
    10:00 +3°C° 0.1 mm 3 mps 714 mmHg 89%
    11:00 +5°C° 0.1 mm 2 mps 714 mmHg 88%
    12:00 +5°C° 0.1 mm 2 mps 713 mmHg 87%
    13:00 +4°C° 0.1 mm 3 mps 713 mmHg 85%
    14:00 +5°C° 0.1 mm 3 mps 713 mmHg 83%
    15:00 +5°C° 0.1 mm 4 mps 714 mmHg 81%
    16:00 +3°C° 1.9 mm 6 mps 715 mmHg 86%
    17:00 +2°C° 1.9 mm 7 mps 716 mmHg 91%
    18:00 +1°C° 1.9 mm 9 mps 718 mmHg 95%
    19:00 0°C° 1.6 mm 9 mps 719 mmHg 93%
    20:00 0°C° 1.6 mm 9 mps 720 mmHg 91%
    21:00 -1°C° 1.6 mm 9 mps 721 mmHg 89%
    22:00 -1°C° 0.2 mm 8 mps 722 mmHg 88%
    23:00 0°C° 0.2 mm 7 mps 723 mmHg 86%

    1 March, Sunday

    Time Temperature Precipitation Wind Pressure Humidity
    00:00 0°C° 0.2 mm 7 mps 724 mmHg 85%
    01:00 -1°C° 0.1 mm 6 mps 725 mmHg 85%
    02:00 -1°C° 0.1 mm 6 mps 726 mmHg 85%
    03:00 0°C° 0.1 mm 5 mps 727 mmHg 84%
    04:00 -1°C° 0.1 mm 5 mps 727 mmHg 84%
    05:00 -1°C° 0.1 mm 5 mps 727 mmHg 84%
    06:00 -1°C° 0.1 mm 5 mps 728 mmHg 84%
    07:00 -1°C° 0.2 mm 5 mps 728 mmHg 85%
    08:00 -2°C° 0.2 mm 6 mps 728 mmHg 87%
    09:00 -1°C° 0.2 mm 6 mps 729 mmHg 89%
    10:00 -1°C° 0.4 mm 6 mps 729 mmHg 85%
    11:00 +1°C° 0.4 mm 6 mps 730 mmHg 82%
    12:00 +2°C° 0.4 mm 7 mps 730 mmHg 79%
    13:00 +2°C° 0.2 mm 6 mps 730 mmHg 78%
    14:00 +2°C° 0.2 mm 6 mps 731 mmHg 78%
    15:00 +2°C° 0.2 mm 5 mps 731 mmHg 78%
    16:00 +3°C° 0 mm 4 mps 731 mmHg 82%
    17:00 +2°C° 0 mm 3 mps 730 mmHg 86%
    18:00 +3°C° 0 mm 1 mps 730 mmHg 90%
    19:00 +3°C° 1 mm 1 mps 730 mmHg 93%
    20:00 +3°C° 1 mm 1 mps 730 mmHg 95%
    21:00 +3°C° 1 mm 1 mps 730 mmHg 98%
    22:00 +3°C° 0.4 mm 1 mps 730 mmHg 98%
    23:00 +2°C° 0.4 mm 2 mps 731 mmHg 98%

    2 March, Monday

    Time Temperature Precipitation Wind Pressure Humidity
    00:00 +2°C° 0.4 mm 2 mps 731 mmHg 98%
    01:00 +2°C° 0.2 mm 2 mps 731 mmHg 98%
    02:00 +2°C° 0.2 mm 2 mps 732 mmHg 98%
    03:00 +2°C° 0.2 mm 2 mps 732 mmHg 98%
    04:00 +1°C° 0 mm 2 mps 733 mmHg 97%
    05:00 -1°C° 0 mm 2 mps 733 mmHg 97%
    06:00 +1°C° 0 mm 1 mps 734 mmHg 97%
    07:00 +1°C° 0 mm 1 mps 735 mmHg 95%
    08:00 +2°C° 0 mm 1 mps 736 mmHg 93%
    09:00 +1°C° 0 mm 2 mps 736 mmHg 91%
    10:00 +3°C° 0.1 mm 2 mps 737 mmHg 88%
    11:00 +4°C° 0.1 mm 2 mps 738 mmHg 85%
    12:00 +6°C° 0.1 mm 2 mps 739 mmHg 82%
    13:00 +5°C° 0.2 mm 3 mps 740 mmHg 82%
    14:00 +5°C° 0.2 mm 3 mps 740 mmHg 81%
    15:00 +5°C° 0.2 mm 3 mps 741 mmHg 80%
    16:00 +4°C° 0 mm 3 mps 742 mmHg 84%
    17:00 +4°C° 0 mm 2 mps 742 mmHg 88%
    18:00 +3°C° 0 mm 1 mps 743 mmHg 92%
    19:00 +3°C° 0 mm 1 mps 744 mmHg 91%
    20:00 +2°C° 0 mm 1 mps 745 mmHg 91%
    21:00 0°C° 0 mm 0 mps 745 mmHg 91%
    22:00 0°C° 0 mm 0 mps 746 mmHg 91%
    23:00 +1°C° 0 mm 1 mps 746 mmHg 91%
    Show more